Date String (YYYY-MM-DD hh:mm:ss) UTC,Instrument flags,Ambient pressure (hPa),Sample flow (lpm),Bypass flow (lpm),Sample temperature (°C),Ambient temperature (°C),ASC tube jacket temperature (°C),LED temperature (°C),Box temperature (°C),Sample RH (%),Span deviation,Mass concentration (μg/m³),Mass concentration (μg/m³),Mass concentration (μg/m³)
DateTimeUTC,F1_M11,P_M11,Q1_M11,Q2_M11,T1_M11,T2_M11,T3_M11,T4_M11,T5_M11,U1_M11,ZSPAN_M11,X0_M11,X2_M11,X1_M11
2022-03-31 03:00:00,,0818.9,5.02,0.00,22.8,22.0,00.0,31.9,24.6,13.8,0000.0,0008.01,0003.41,0002.74
2022-03-31 03:01:00,,0818.9,4.99,0.00,22.8,22.0,00.0,31.9,24.6,13.8,0000.0,0007.63,0003.43,0002.76
2022-03-31 03:02:00,,0818.9,4.99,0.00,22.8,21.9,00.0,31.9,24.5,13.8,0000.0,0007.77,0003.43,0002.77
2022-03-31 03:03:00,,0818.9,5.00,0.00,22.7,21.9,00.0,31.8,24.5,13.8,0000.0,0007.97,0003.44,0002.79
2022-03-31 03:04:00,,0818.9,5.00,0.00,22.7,21.9,00.0,31.8,24.4,13.8,0000.0,0007.48,0003.46,0002.81
2022-03-31 03:05:00,,0818.9,5.00,0.00,22.7,21.9,00.0,31.8,24.4,13.8,0000.0,0007.44,0003.49,0002.82
2022-03-31 03:06:00,,0819.0,5.01,0.00,22.7,21.9,00.0,31.8,24.4,13.8,0000.0,0007.78,0003.52,0002.83
2022-03-31 03:07:00,,0819.0,5.00,0.00,22.7,21.8,00.0,31.8,24.4,13.8,0000.0,0008.21,0003.50,0002.82
2022-03-31 03:08:00,,0818.9,4.99,0.00,22.7,21.8,00.0,31.8,24.4,13.8,0000.0,0008.14,0003.49,0002.83
2022-03-31 03:09:00,,0818.9,4.99,0.00,22.6,21.8,00.0,31.8,24.3,13.8,0000.0,0008.02,0003.49,0002.83
2022-03-31 03:10:00,,0818.9,5.01,0.00,22.6,21.8,00.0,31.8,24.3,13.8,0000.0,0008.11,0003.48,0002.84
2022-03-31 03:11:00,,0819.0,5.00,0.00,22.6,21.7,00.0,31.7,24.3,13.8,0000.0,0008.05,0003.48,0002.83
2022-03-31 03:12:00,,0819.0,5.01,0.00,22.6,21.7,00.0,31.7,24.3,13.8,0000.0,0008.35,0003.47,0002.82
2022-03-31 03:13:00,,0819.0,5.00,0.00,22.6,21.7,00.0,31.7,24.3,13.9,0000.0,0008.36,0003.48,0002.82
2022-03-31 03:14:00,,0819.0,5.00,0.00,22.6,21.7,00.0,31.7,24.2,13.8,0000.0,0008.12,0003.49,0002.81
2022-03-31 03:15:00,,0819.0,5.00,0.00,22.5,21.7,00.0,31.7,24.2,13.8,0000.0,0008.50,0003.50,0002.82
2022-03-31 03:16:00,,0819.0,5.00,0.00,22.5,21.6,00.0,31.7,24.2,13.8,0000.0,0008.53,0003.50,0002.81
2022-03-31 03:17:00,,0819.0,5.00,0.00,22.5,21.6,00.0,31.6,24.2,13.8,0000.0,0008.40,0003.48,0002.80
2022-03-31 03:18:00,,0819.1,5.00,0.00,22.5,21.6,00.0,31.6,24.2,13.8,0000.0,0008.21,0003.49,0002.81
2022-03-31 03:19:00,,0819.0,4.99,0.00,22.5,21.6,00.0,31.6,24.2,13.8,0000.0,0008.29,0003.50,0002.81
2022-03-31 03:20:00,,0819.0,5.00,0.00,22.5,21.6,00.0,31.6,24.2,13.8,0000.0,0008.34,0003.54,0002.82
2022-03-31 03:21:00,,0819.0,5.00,0.00,22.5,21.6,00.0,31.6,24.2,13.8,0000.0,0008.30,0003.53,0002.82
2022-03-31 03:22:00,,0819.0,5.00,0.00,22.5,21.6,00.0,31.6,24.2,13.8,0000.0,0008.43,0003.54,0002.81
2022-03-31 03:23:00,,0819.1,5.00,0.00,22.4,21.6,00.0,31.6,24.2,13.8,0000.0,0008.29,0003.52,0002.80
2022-03-31 03:24:00,,0819.1,4.99,0.00,22.4,21.6,00.0,31.6,24.2,13.8,0000.0,0007.91,0003.54,0002.80
2022-03-31 03:25:00,,0819.1,4.99,0.00,22.4,21.6,00.0,31.6,24.2,13.8,0000.0,0007.90,0003.56,0002.79
2022-03-31 03:26:00,,0819.2,5.00,0.00,22.4,21.6,00.0,31.5,24.2,13.7,0000.0,0007.71,0003.55,0002.77
2022-03-31 03:27:00,,0819.2,5.01,0.00,22.4,21.6,00.0,31.5,24.1,13.8,0000.0,0007.96,0003.50,0002.75
2022-03-31 03:28:00,,0819.2,5.00,0.00,22.4,21.6,00.0,31.5,24.1,13.7,0000.0,0009.23,0003.50,0002.72
2022-03-31 03:29:00,,0819.2,5.00,0.00,22.4,21.5,00.0,31.5,24.1,13.8,0000.0,0008.89,0003.49,0002.70
2022-03-31 03:30:00,,0819.3,5.00,0.00,22.4,21.5,00.0,31.5,24.1,13.8,0000.0,0008.79,0003.49,0002.69
2022-03-31 03:31:00,,0819.3,5.00,0.00,22.3,21.5,00.0,31.5,24.1,13.8,0000.0,0008.93,0003.53,0002.69
2022-03-31 03:32:00,,0819.2,4.98,0.00,22.4,21.6,00.0,31.5,24.1,13.8,0000.0,0008.99,0003.55,0002.69
2022-03-31 03:33:00,,0819.2,5.00,0.00,22.4,21.6,00.0,31.5,24.2,13.8,0000.0,0008.81,0003.52,0002.69
2022-03-31 03:34:00,,0819.2,5.01,0.00,22.4,21.7,00.0,31.5,24.2,13.8,0000.0,0009.25,0003.53,0002.68
2022-03-31 03:35:00,,0819.2,5.00,0.00,22.4,21.7,00.0,31.5,24.3,13.7,0000.0,0009.30,0003.49,0002.66
2022-03-31 03:36:00,,0819.3,5.00,0.00,22.4,21.7,00.0,31.5,24.3,13.7,0000.0,0009.81,0003.48,0002.65
2022-03-31 03:37:00,,0819.3,5.01,0.00,22.4,21.7,00.0,31.5,24.2,13.7,0000.0,0009.71,0003.46,0002.65
2022-03-31 03:38:00,,0819.3,4.99,0.00,22.4,21.7,00.0,31.4,24.2,13.7,0000.0,0009.19,0003.49,0002.65
2022-03-31 03:39:00,,0819.2,5.00,0.00,22.4,21.6,00.0,31.4,24.1,13.8,0000.0,0008.08,0003.50,0002.67
2022-03-31 03:40:00,,0819.2,5.00,0.00,22.4,21.6,00.0,31.4,24.1,13.8,0000.0,0008.27,0003.52,0002.69
2022-03-31 03:41:00,,0819.3,5.00,0.00,22.3,21.5,00.0,31.4,24.1,13.8,0000.0,0008.41,0003.54,0002.70
2022-03-31 03:42:00,,0819.3,5.00,0.00,22.3,21.5,00.0,31.4,24.0,13.8,0000.0,0008.21,0003.48,0002.68
2022-03-31 03:43:00,,0819.3,5.01,0.00,22.3,21.5,00.0,31.4,24.0,13.9,0000.0,0008.16,0003.45,0002.68
2022-03-31 03:44:00,,0819.3,5.00,0.00,22.2,21.4,00.0,31.4,23.9,13.9,0000.0,0008.25,0003.45,0002.67
2022-03-31 03:45:00,,0819.2,5.00,0.00,22.2,21.4,00.0,31.4,23.9,13.9,0000.0,0007.82,0003.46,0002.69
2022-03-31 03:46:00,,0819.2,5.00,0.00,22.2,21.4,00.0,31.4,23.9,14.0,0000.0,0007.89,0003.49,0002.72
2022-03-31 03:47:00,,0819.2,4.99,0.00,22.1,21.3,00.0,31.3,23.9,14.0,0000.0,0007.51,0003.49,0002.74
2022-03-31 03:48:00,,0819.3,5.00,0.00,22.1,21.3,00.0,31.3,23.8,14.0,0000.0,0007.57,0003.50,0002.75
2022-03-31 03:49:00,,0819.2,5.00,0.00,22.1,21.3,00.0,31.3,23.8,14.0,0000.0,0008.01,0003.53,0002.76
2022-03-31 03:50:00,,0819.3,5.00,0.00,22.1,21.3,00.0,31.3,23.8,14.0,0000.0,0007.87,0003.53,0002.77
2022-03-31 03:51:00,,0819.3,5.00,0.00,22.1,21.3,00.0,31.3,23.8,14.0,0000.0,0007.61,0003.54,0002.77
2022-03-31 03:52:00,,0819.2,5.00,0.00,22.1,21.3,00.0,31.2,23.8,13.9,0000.0,0007.46,0003.51,0002.78
2022-03-31 03:53:00,,0819.3,5.00,0.00,22.1,21.3,00.0,31.2,23.8,13.9,0000.0,0007.54,0003.52,0002.79
2022-03-31 03:54:00,,0819.3,5.00,0.00,22.1,21.3,00.0,31.2,23.8,13.9,0000.0,0007.57,0003.57,0002.82
2022-03-31 03:55:00,,0819.3,5.00,0.00,22.1,21.3,00.0,31.2,23.8,13.9,0000.0,0007.45,0003.59,0002.85
2022-03-31 03:56:00,,0819.2,5.00,0.00,22.1,21.3,00.0,31.2,23.8,13.8,0000.0,0007.40,0003.57,0002.86
2022-03-31 03:57:00,,0819.2,5.00,0.00,22.0,21.3,00.0,31.2,23.8,13.8,0000.0,0007.13,0003.56,0002.87
2022-03-31 03:58:00,,0819.2,5.01,0.00,22.0,21.2,00.0,31.2,23.7,13.9,0000.0,0006.99,0003.58,0002.87
2022-03-31 03:59:00,,0819.2,5.00,0.00,22.0,21.2,00.0,31.1,23.7,13.9,0000.0,0007.23,0003.61,0002.88
